Canby, MN

5:24 PM CST on January 20, 2018 (GMT -0600)
Canby

Weather History for KCNB - July, 2013

Change the Weather History Date:

Sunday, July 28, 2013

  Actual Average (KMML) Record (KMML)
Temperature  
Mean Temperature 58 °F -  
Max Temperature 74 °F 82 °F 102 °F (1955)
Min Temperature 43 °F 60 °F 44 °F (2013)
Degree Days  
Heating Degree Days 6    
Growing Degree Days 8 (Base 50)    
Moisture  
Dew Point 46 °F    
Average Humidity 64    
Maximum Humidity 95    
Minimum Humidity 36    
Precipitation  
Precipitation 0.00 in - - ()
Sea Level Pressure  
Sea Level Pressure 30.06 in    
Wind  
Wind Speed 5 mph (NW)    
Max Wind Speed 13 mph    
Max Gust Speed 20 mph    
Visibility 10 miles    
Events      
Averages and records for this station are not official NWS values.
T = Trace of Precipitation, MM = Missing Value Source: NWS Daily Summary

Daily Weather History Graph

Daily Weather History Graph

Search for Another Location

Airport or City:

Trip Planner

Search our weather history database for the weather conditions in past years. The results will help you decide how hot, cold, wet, or windy it might be!

Date:

Astronomy

Jul. 28, 2013 Rise Set
Actual Time 6:07 AM CDT 8:55 PM CDT
Civil Twilight 5:33 AM CDT 9:29 PM CDT
Nautical Twilight 4:49 AM CDT 10:12 PM CDT
Astronomical Twilight 3:59 AM CDT 11:02 PM CDT
Moon 11:56 PM CDT (7/28) 1:10 PM CDT (7/28)
Length of Visible Light 15h 56m
Length of Day
14h 48m
Waning Gibbous, 60% of the Moon is Illuminated
Jul 28
Waning Gibbous
Jul 29
Last Quarter
Aug 6
New
Aug 14
First Quarter
Aug 20
Full

Hourly Weather History & Observations

Time (CDT) Temp. Windchill Dew Point Humidity Pressure Visibility Wind Dir Wind Speed Gust Speed Precip Events Conditions
12:14 AM 53.4 °F - 45.9 °F 76% 30.07 in 10.0 mi North 6.9 mph 17.3 mph N/A   Scattered Clouds
12:34 AM 54.5 °F - 46.0 °F 73% 30.06 in 10.0 mi Calm Calm - N/A   Scattered Clouds
12:55 AM 52.5 °F - 45.9 °F 78% 30.07 in 10.0 mi Calm Calm - N/A   Scattered Clouds
1:14 AM 52.5 °F - 46.6 °F 80% 30.07 in 10.0 mi West 4.6 mph - N/A   Clear
1:34 AM 50.4 °F - 46.2 °F 86% 30.06 in 10.0 mi West 4.6 mph - N/A   Clear
1:55 AM 49.3 °F - 45.7 °F 87% 30.06 in 10.0 mi West 5.8 mph - N/A   Clear
2:15 AM 48.0 °F - 45.0 °F 89% 30.06 in 10.0 mi West 4.6 mph - N/A   Clear
2:34 AM 48.0 °F - 45.0 °F 89% 30.06 in 10.0 mi West 4.6 mph - N/A   Clear
2:54 AM 46.9 °F - 44.6 °F 92% 30.06 in 10.0 mi West 4.6 mph - N/A   Clear
3:14 AM 46.4 °F 45.2 °F 44.2 °F 92% 30.05 in 10.0 mi West 3.5 mph - N/A   Clear
3:34 AM 46.9 °F - 44.6 °F 92% 30.05 in 10.0 mi West 4.6 mph - N/A   Clear
3:54 AM 45.5 °F 42.5 °F 43.7 °F 93% 30.05 in 10.0 mi West 5.8 mph - N/A   Clear
4:14 AM 45.0 °F 42.6 °F 43.2 °F 93% 30.05 in 10.0 mi West 4.6 mph - N/A   Clear
4:34 AM 46.0 °F 43.1 °F 43.9 °F 92% 30.05 in 10.0 mi WSW 5.8 mph - N/A   Clear
4:54 AM 45.3 °F 44.0 °F 42.4 °F 90% 30.05 in 10.0 mi West 3.5 mph - N/A   Clear
5:14 AM 45.5 °F 43.2 °F 43.0 °F 91% 30.05 in 10.0 mi West 4.6 mph - N/A   Clear
5:34 AM 45.3 °F 44.0 °F 43.2 °F 92% 30.05 in 10.0 mi West 3.5 mph - N/A   Clear
5:55 AM 43.5 °F 40.9 °F 41.7 °F 93% 30.05 in 10.0 mi West 4.6 mph - N/A   Clear
6:14 AM 44.2 °F 41.0 °F 43.0 °F 95% 30.06 in 10.0 mi WSW 5.8 mph - N/A   Clear
6:34 AM 45.7 °F 44.4 °F 43.2 °F 91% 30.06 in 10.0 mi West 3.5 mph - N/A   Clear
6:54 AM 46.8 °F - 44.8 °F 93% 30.06 in 10.0 mi West 4.6 mph - N/A   Clear
7:14 AM 49.8 °F - 45.9 °F 86% 30.06 in 10.0 mi West 3.5 mph - N/A   Clear
7:35 AM 52.7 °F - 47.3 °F 82% 30.06 in 10.0 mi WNW 3.5 mph - N/A   Clear
7:54 AM 55.0 °F - 48.4 °F 78% 30.07 in 10.0 mi WNW 4.6 mph - N/A   Clear
8:14 AM 57.9 °F - 48.2 °F 70% 30.07 in 10.0 mi WNW 6.9 mph - N/A   Clear
8:35 AM 59.7 °F - 47.1 °F 63% 30.07 in 10.0 mi WNW 6.9 mph - N/A   Clear
8:54 AM 61.3 °F - 46.0 °F 57% 30.08 in 10.0 mi NW 8.1 mph - N/A   Clear
9:14 AM 62.1 °F - 45.5 °F 55% 30.08 in 10.0 mi NNW 8.1 mph - N/A   Clear
9:34 AM 63.0 °F - 45.0 °F 52% 30.08 in 10.0 mi North 9.2 mph - N/A   Clear
9:54 AM 63.9 °F - 44.2 °F 49% 30.07 in 10.0 mi North 6.9 mph - N/A   Clear
10:14 AM 65.7 °F - 45.0 °F 47% 30.07 in 10.0 mi North 9.2 mph - N/A   Clear
10:34 AM 65.8 °F - 45.0 °F 47% 30.07 in 10.0 mi NNW 10.4 mph - N/A   Clear
10:54 AM 67.1 °F - 45.1 °F 45% 30.07 in 10.0 mi NNW 8.1 mph 16.1 mph N/A   Clear
11:14 AM 67.6 °F - 45.0 °F 44% 30.07 in 10.0 mi North 6.9 mph 16.1 mph N/A   Clear
11:34 AM 68.2 °F - 45.1 °F 43% 30.07 in 10.0 mi North 10.4 mph 18.4 mph N/A   Clear
11:54 AM 68.9 °F - 46.0 °F 44% 30.07 in 10.0 mi North 11.5 mph 17.3 mph N/A   Clear
12:14 PM 69.6 °F - 46.0 °F 43% 30.07 in 10.0 mi NNE 10.4 mph 16.1 mph N/A   Clear
12:35 PM 70.0 °F - 45.7 °F 42% 30.06 in 10.0 mi North 10.4 mph 18.4 mph N/A   Clear
12:54 PM 69.6 °F - 45.5 °F 42% 30.07 in 10.0 mi North 9.2 mph 19.6 mph N/A   Scattered Clouds
1:14 PM 69.6 °F - 46.2 °F 43% 30.06 in 10.0 mi NNW 12.7 mph 19.6 mph N/A   Scattered Clouds
1:34 PM 70.3 °F - 46.6 °F 43% 30.06 in 10.0 mi North 8.1 mph - N/A   Scattered Clouds
1:54 PM 70.5 °F - 47.1 °F 43% 30.06 in 10.0 mi North 10.4 mph - N/A   Scattered Clouds
2:14 PM 70.7 °F - 46.2 °F 42% 30.06 in 10.0 mi North 8.1 mph - N/A   Mostly Cloudy
2:34 PM 72.0 °F - 45.9 °F 39% 30.05 in 10.0 mi North 6.9 mph - N/A   Scattered Clouds
2:54 PM 72.9 °F - 45.5 °F 38% 30.05 in 10.0 mi NW 6.9 mph - N/A   Scattered Clouds
3:14 PM 74.1 °F - 45.9 °F 36% 30.05 in 10.0 mi North 5.8 mph - N/A   Scattered Clouds
3:34 PM 71.2 °F - 45.7 °F 40% 30.05 in 10.0 mi North 8.1 mph - N/A   Scattered Clouds
3:54 PM 72.9 °F - 45.1 °F 37% 30.04 in 10.0 mi NW 5.8 mph - N/A   Scattered Clouds
4:14 PM 73.0 °F - 45.7 °F 38% 30.04 in 10.0 mi NNE 9.2 mph - N/A   Scattered Clouds
4:34 PM 72.7 °F - 45.7 °F 38% 30.04 in 10.0 mi NNW 3.5 mph - N/A   Scattered Clouds
4:54 PM 71.6 °F - 45.0 °F 38% 30.04 in 10.0 mi NNW 3.5 mph - N/A   Clear
5:14 PM 73.0 °F - 44.8 °F 36% 30.04 in 10.0 mi NW 6.9 mph - N/A   Scattered Clouds
5:34 PM 72.9 °F - 46.4 °F 39% 30.04 in 10.0 mi North 3.5 mph - N/A   Scattered Clouds
5:54 PM 70.0 °F - 47.3 °F 44% 30.04 in 10.0 mi North 6.9 mph - N/A   Clear
6:14 PM 72.3 °F - 47.1 °F 41% 30.04 in 10.0 mi North 4.6 mph - N/A   Clear
6:34 PM 71.8 °F - 45.9 °F 39% 30.04 in 10.0 mi North 3.5 mph - N/A   Clear
6:54 PM 70.5 °F - 48.0 °F 45% 30.04 in 10.0 mi NNW 3.5 mph - N/A   Clear
7:14 PM 70.7 °F - 47.5 °F 44% 30.04 in 10.0 mi North 3.5 mph - N/A   Clear
7:34 PM 70.2 °F - 48.0 °F 45% 30.04 in 10.0 mi Calm Calm - N/A   Clear
7:54 PM 68.7 °F - 48.2 °F 48% 30.04 in 10.0 mi NE 3.5 mph - N/A   Clear
8:14 PM 66.7 °F - 49.5 °F 54% 30.04 in 10.0 mi Calm Calm - N/A   Clear
8:34 PM 66.0 °F - 51.3 °F 59% 30.05 in 10.0 mi Calm Calm - N/A   Clear
8:54 PM 63.9 °F - 53.1 °F 68% 30.04 in 10.0 mi Calm Calm - N/A   Clear
9:14 PM 61.0 °F - 52.9 °F 75% 30.05 in 10.0 mi Calm Calm - N/A   Clear
9:34 PM 60.1 °F - 54.5 °F 82% 30.05 in 10.0 mi Calm Calm - N/A   Clear
9:54 PM 56.3 °F - 51.3 °F 83% 30.07 in 10.0 mi West 3.5 mph - N/A   Clear
10:14 PM 56.5 °F - 51.4 °F 83% 30.07 in 10.0 mi Calm Calm - N/A   Clear
10:34 PM 56.1 °F - 51.4 °F 84% 30.08 in 10.0 mi Calm Calm - N/A   Clear
10:54 PM 53.1 °F - 49.6 °F 88% 30.08 in 10.0 mi WSW 4.6 mph - N/A   Clear
11:14 PM 52.9 °F - 49.1 °F 87% 30.09 in 10.0 mi Calm Calm - N/A   Clear
11:35 PM 54.1 °F - 50.7 °F 88% 30.08 in 10.0 mi Calm Calm - N/A   Clear
11:54 PM 53.6 °F - 50.4 °F 89% 30.08 in 10.0 mi Calm Calm - N/A   Clear